Location: Lalanga
(4.5882°N, 32.9072°E)
Time: 18:02:03
(UTC+00:00)

ARIANE 5 R/B - Pass Details

Date: 24 January 2020
Orbit: 292 x 34285 km, 2.6° (Epoch: 23 February)

Event Time Altitude Azimuth Distance (km) Brightness Sun altitude
Rises 17:38:25 0° 265° (W) 5,956 8.8 -24.6°
Reaches altitude 10° 17:44:29 10° 261° (W) 2,968 7.0 -26.1°
Enters shadow 17:48:50 39° 233° (SW) 777 3.5 -27.1°
